User: anonymous   Login
Location: Nairn
(57.5833°N, 3.8667°W)
Time: 18:33:25
(UTC+00:00)
Language:

DNEPR-1 R/B - Orbit

View from above orbital plane
View from above orbital plane
View from above satellite
View from above satellite

Ground track
Ground track

The orbit data is extracted from the following two-line orbital elements,

1 26550U 00057F   20298.47153061 -.00000095  00000-0  69342-5 0  9992
2 26550  64.5631 350.7708 0526923 170.6846 190.4472 13.80796936 11915
Epoch (UTC): 24 October 2020 11:19:00
Eccentricity: 0.0526923
inclination: 64.5631°
perigee height: 574 km
apogee height: 1348 km
right ascension of ascending node: 350.7708°
argument of perigee: 170.6846°
revolutions per day: 13.80796936
mean anomaly at epoch: 190.4472°
orbit number at epoch: 1191

The dashed part of the orbit path shows where the satellite is in the earth's shadow,  

DLR